| time (UTC) | temp F | wind direction | speed MPH | gust MPH | rain 1hr in | rain 24hr in | rain mn in | humidity % | barometer mb |
| 20260504031105 | 52 | 38 | 0.0 | 1.0 | 0.00 | 0.00 | 0.00 | 60 | 1013.0 |
| 20260504030105 | 52 | 38 | 0.0 | 1.0 | 0.00 | 0.00 | 0.00 | 60 | 1013.1 |
| 20260504025105 | 52 | 34 | 0.0 | 4.0 | 0.00 | 0.00 | 0.00 | 61 | 1013.1 |
| 20260504024105 | 52 | 20 | 2.0 | 8.0 | 0.00 | 0.00 | 0.00 | 61 | 1013.2 |
| 20260504023105 | 52 | 83 | 0.0 | 4.0 | 0.00 | 0.00 | 0.00 | 61 | 1013.1 |
| 20260504021105 | 52 | 115 | 0.0 | 0.0 | 0.00 | 0.00 | 0.00 | 61 | 1013.2 |
| 20260504012107 | 53 | 115 | 0.0 | 0.0 | 0.00 | 0.00 | 0.00 | 62 | 1013.0 |
| 20260504010107 | 53 | 115 | 0.0 | 0.0 | 0.00 | 0.00 | 0.00 | 61 | 1013.1 |
| 20260503235106 | 54 | 85 | 0.0 | 0.0 | 0.00 | 0.00 | 0.00 | 61 | 1013.3 |
| 20260503231106 | 55 | 87 | 0.0 | 4.0 | 0.00 | 0.00 | 0.00 | 60 | 1013.3 |
| 20260503224105 | 55 | 104 | 0.0 | 0.0 | 0.00 | 0.00 | 0.00 | 58 | 1013.6 |
| 20260503223105 | 55 | 104 | 0.0 | 1.0 | 0.00 | 0.00 | 0.00 | 58 | 1013.7 |
| 20260503221105 | 56 | 112 | 0.0 | 0.0 | 0.00 | 0.00 | 0.00 | 57 | 1013.8 |
| 20260503220105 | 56 | 112 | 0.0 | 0.0 | 0.00 | 0.00 | 0.00 | 57 | 1013.7 |
| 20260503214109 | 57 | 112 | 0.0 | 7.0 | 0.00 | 0.00 | 0.00 | 56 | 1013.8 |
| 20260503212109 | 58 | 101 | 0.0 | 0.0 | 0.00 | 0.00 | 0.00 | 54 | 1013.7 |
| 20260503211109 | 58 | 101 | 0.0 | 0.0 | 0.00 | 0.00 | 0.00 | 53 | 1013.8 |
| 20260503205108 | 59 | 101 | 0.0 | 0.0 | 0.00 | 0.00 | 0.00 | 52 | 1013.8 |
| 20260503204109 | 60 | 133 | 0.0 | 1.0 | 0.00 | 0.00 | 0.00 | 51 | 1014.0 |
| 20260503203108 | 60 | 133 | 0.0 | 1.0 | 0.00 | 0.00 | 0.00 | 50 | 1013.8 |
| 20260503201108 | 61 | 159 | 0.0 | 1.0 | 0.00 | 0.00 | 0.00 | 48 | 1014.0 |
| 20260503195108 | 62 | 161 | 0.0 | 2.0 | 0.00 | 0.00 | 0.00 | 47 | 1014.2 |
| 20260503193108 | 63 | 156 | 0.0 | 1.0 | 0.00 | 0.00 | 0.00 | 45 | 1014.1 |
| 20260503192108 | 64 | 153 | 1.0 | 7.0 | 0.00 | 0.00 | 0.00 | 44 | 1014.1 |
| 20260503185108 | 64 | 150 | 2.0 | 7.0 | 0.00 | 0.00 | 0.00 | 43 | 1013.5 |
| 20260503174107 | 67 | 168 | 1.0 | 7.0 | 0.00 | 0.00 | 0.00 | 38 | 1012.6 |
| 20260503173107 | 68 | 171 | 4.0 | 11.0 | 0.00 | 0.00 | 0.00 | 37 | 1012.5 |
| 20260503171107 | 69 | 134 | 4.0 | 16.0 | 0.00 | 0.00 | 0.00 | 36 | 1012.4 |
| 20260503170107 | 69 | 150 | 3.0 | 10.0 | 0.00 | 0.00 | 0.00 | 35 | 1012.2 |
| 20260503160107 | 71 | 119 | 0.0 | 5.0 | 0.00 | 0.00 | 0.00 | 35 | 1012.3 |
| 20260503150106 | 71 | 142 | 6.0 | 13.0 | 0.00 | 0.00 | 0.00 | 32 | 1012.9 |
| 20260503140106 | 73 | 137 | 6.0 | 14.0 | 0.00 | 0.00 | 0.00 | 32 | 1013.6 |
| 20260503131106 | 73 | 158 | 2.0 | 11.0 | 0.00 | 0.00 | 0.00 | 35 | 1014.2 |
| 20260503100109 | 70 | 60 | 3.0 | 13.0 | 0.00 | 0.00 | 0.00 | 37 | 1016.0 |
| 20260503090109 | 68 | 148 | 2.0 | 10.0 | 0.00 | 0.00 | 0.00 | 41 | 1016.6 |
| 20260503081109 | 67 | 141 | 2.0 | 8.0 | 0.00 | 0.00 | 0.00 | 41 | 1017.1 |
| 20260503080109 | 67 | 143 | 1.0 | 8.0 | 0.00 | 0.00 | 0.00 | 42 | 1017.3 |
| 20260503071108 | 64 | 149 | 0.0 | 6.0 | 0.00 | 0.00 | 0.00 | 46 | 1017.3 |
| 20260503053108 | 49 | 172 | 0.0 | 0.0 | 0.00 | 0.00 | 0.00 | 72 | 1017.0 |
| 20260503052108 | 48 | 172 | 0.0 | 0.0 | 0.00 | 0.00 | 0.00 | 74 | 1017.0 |
| 20260503051107 | 46 | 172 | 0.0 | 0.0 | 0.00 | 0.00 | 0.00 | 78 | 1016.9 |
| 20260503050107 | 45 | 172 | 0.0 | 0.0 | 0.00 | 0.00 | 0.00 | 78 | 1016.8 |
| 20260503045107 | 44 | 172 | 0.0 | 0.0 | 0.00 | 0.00 | 0.00 | 79 | 1016.7 |
| 20260503043107 | 42 | 172 | 0.0 | 0.0 | 0.00 | 0.00 | 0.00 | 80 | 1016.8 |
| 20260503042107 | 41 | 172 | 0.0 | 0.0 | 0.00 | 0.00 | 0.00 | 80 | 1016.6 |
| 20260503035107 | 41 | 172 | 0.0 | 0.0 | 0.00 | 0.00 | 0.00 | 80 | 1016.6 |